Richmond, VA

5:30 AM EST on December 13, 2019 (GMT -0500)
Richmond International

Weather History for KRIC - October, 2019

Change the Weather History Date:

Friday, October 11, 2019

  Actual Average Record
Temperature  
Mean Temperature 64 °F 61 °F  
Max Temperature 75 °F 72 °F 92 °F (1919)
Min Temperature 51 °F 50 °F 32 °F (1964)
Degree Days  
Heating Degree Days 2 5  
Month to date heating degree days 10 45  
Since 1 July heating degree days 10 74  
Cooling Degree Days 0 2  
Month to date cooling degree days 70 24  
Year to date cooling degree days 2040 1528  
Growing Degree Days 14 (Base 50)    
Moisture  
Dew Point 44 °F    
Average Humidity 58    
Maximum Humidity 89    
Minimum Humidity 20    
Precipitation  
Precipitation 0.00 in 0.10 in 2.13 in (2018)
Month to date precipitation 0.38 1.08  
Year to date precipitation 33.53 35.20  
Snow  
Snow 0.00 in 0.00 in 0.00 in (2002)
Month to date snowfall 0.0 0.0  
Since 1 July snowfall 0.0 0.0  
Snow Depth 0.00 in    
Sea Level Pressure  
Sea Level Pressure 30.11 in    
Wind  
Wind Speed 7 mph ()    
Max Wind Speed 17 mph    
Max Gust Speed 22 mph    
Visibility 10.0 miles    
Events      
T = Trace of Precipitation, MM = Missing Value Source: Averaged Metar Reports

Daily Weather History Graph

Daily Weather History Graph

Search for Another Location

Airport or City:

Astronomy

Oct. 11, 2019 Rise Set
Actual Time 7:13 AM EDT 6:38 PM EDT
Civil Twilight 6:47 AM EDT 7:04 PM EDT
Nautical Twilight 6:16 AM EDT 7:34 PM EDT
Astronomical Twilight 5:46 AM EDT 8:04 PM EDT
Moon 6:02 PM EDT (10/11) 4:56 AM EDT (10/11)
Length of Visible Light 12h 16m
Length of Day
11h 24m
Waxing Gibbous, 96% of the Moon is Illuminated
Oct 11
Waxing Gibbous
Oct 13
Full
Oct 21
Last Quarter
Oct 27
New
Nov 4
First Quarter

Hourly Weather History & Observations

Time (EDT) Temp. Dew Point Humidity Pressure Visibility Wind Dir Wind Speed Gust Speed Precip Events Conditions
12:54 AM 57.9 °F 53.1 °F 84% 30.14 in 10.0 mi North 6.9 mph - N/A   Partly Cloudy
1:54 AM 57.0 °F 53.1 °F 87% 30.14 in 10.0 mi North 6.9 mph - N/A   Partly Cloudy
2:54 AM 57.0 °F 52.0 °F 83% 30.14 in 10.0 mi North 6.9 mph - N/A   Clear
3:54 AM 55.9 °F 52.0 °F 87% 30.13 in 10.0 mi North 8.1 mph - N/A   Clear
4:54 AM 55.0 °F 51.1 °F 86% 30.14 in 10.0 mi North 8.1 mph - N/A   Clear
5:54 AM 53.1 °F 50.0 °F 89% 30.14 in 10.0 mi North 6.9 mph - N/A   Clear
6:54 AM 53.1 °F 48.0 °F 83% 30.14 in 10.0 mi North 8.1 mph - N/A   Partly Cloudy
7:54 AM 55.0 °F 46.9 °F 74% 30.16 in 10.0 mi North 10.4 mph 21.9 mph N/A   Partly Cloudy
8:54 AM 59.0 °F 45.0 °F 60% 30.16 in 10.0 mi North 13.8 mph - N/A   Partly Cloudy
9:54 AM 62.1 °F 43.0 °F 50% 30.17 in 10.0 mi NNE 12.7 mph - N/A   Partly Cloudy
10:54 AM 66.0 °F 42.1 °F 42% 30.17 in 10.0 mi NNE 10.4 mph - N/A   Scattered Clouds
11:54 AM 68.0 °F 36.0 °F 31% 30.14 in 10.0 mi North 15.0 mph - N/A   Partly Cloudy
12:54 PM 70.0 °F 34.0 °F 27% 30.13 in 10.0 mi NNW 15.0 mph - N/A   Partly Cloudy
1:54 PM 73.0 °F 30.9 °F 21% 30.09 in 10.0 mi NNW 15.0 mph 21.9 mph N/A   Partly Cloudy
2:54 PM 75.9 °F 32.0 °F 20% 30.06 in 10.0 mi NNW 12.7 mph - N/A   Partly Cloudy
3:54 PM 75.0 °F 36.0 °F 24% 30.05 in 10.0 mi NNW 12.7 mph - N/A   Partly Cloudy
4:54 PM 75.0 °F 37.9 °F 26% 30.05 in 10.0 mi North 11.5 mph - N/A   Partly Cloudy
5:54 PM 72.0 °F 39.0 °F 30% 30.06 in 10.0 mi North 6.9 mph - N/A   Partly Cloudy
6:54 PM 64.9 °F 42.1 °F 43% 30.05 in 10.0 mi NE 5.8 mph - N/A   Partly Cloudy
7:54 PM 61.0 °F 45.0 °F 56% 30.05 in 10.0 mi Calm Calm - N/A   Partly Cloudy
8:54 PM 57.9 °F 44.1 °F 60% 30.06 in 10.0 mi Calm Calm - N/A   Partly Cloudy
9:54 PM 55.9 °F 46.0 °F 69% 30.07 in 10.0 mi Calm Calm - N/A   Clear
10:54 PM 53.1 °F 45.0 °F 74% 30.07 in 10.0 mi Calm Calm - N/A   Clear
11:54 PM 53.1 °F 45.0 °F 74% 30.06 in 10.0 mi Calm Calm - N/A   Partly Cloudy